Terminal Aerodrome Forecast
Issued by NWS Louisville, KY

Home | Current Version | Previous Version | Text Only | Print | Product List | Glossary On
Versions: 1 2 3 4 5 6 7 8 9 10 11 12 13
000
FTUS43 KLMK 271723
TAFBWG
TAF
KBWG 271723Z 2718/2818 06010KT P6SM SCT040
     FM280100 VRB03KT P6SM SKC
     FM280900 00000KT 4SM BR SKC
     FM281300 12006KT P6SM SCT040=

USA.gov is the U.S. government's official web portal to all federal, state and local government web resources and services.